Date,TemperatureHighF,TemperatureAvgF,TemperatureLowF,DewpointHighF,DewpointAvgF,DewpointLowF,HumidityHigh,HumidityAvg,HumidityLow,PressureMaxIn,PressureMinIn,WindSpeedMaxMPH,WindSpeedAvgMPH,GustSpeedMaxMPH,PrecipitationSumIn
2013-10-1,58,53,46,56,52,45,96,95,93,29.99,29.90,0,0,0,0.00
2013-10-2,75,60,46,63,54,45,97,80,55,29.97,29.83,3,0,11,0.00
2013-10-3,70,56,42,55,49,41,96,80,45,30.10,29.97,1,0,5,0.00
2013-10-4,61,53,41,56,49,40,97,90,72,30.09,30.03,0,0,4,0.00
2013-10-5,59,56,53,54,52,50,93,88,81,30.12,30.06,2,0,5,0.00
2013-10-6,56,54,52,53,51,49,96,89,82,30.14,30.05,5,1,11,0.12
2013-10-7,72,61,51,65,56,48,94,85,73,30.05,29.58,8,2,20,0.56
2013-10-8,60,50,38,49,42,36,96,78,48,30.39,29.90,3,0,9,0.12
2013-10-9,65,45,30,46,37,29,97,78,35,30.48,30.35,3,0,6,0.00
2013-10-10,64,47,33,49,41,32,97,81,43,30.36,30.18,1,0,4,0.00
2013-10-11,66,51,41,53,46,39,96,83,54,30.18,30.11,2,0,9,0.00
2013-10-12,68,50,36,55,45,35,97,83,60,30.37,30.18,4,1,11,0.00
2013-10-13,68,55,45,49,45,-100,92,71,48,30.41,30.30,3,1,8,0.00
2013-10-14,61,52,40,54,48,39,96,87,75,30.35,30.23,1,0,3,0.00
2013-10-15,64,57,52,57,53,49,96,88,72,30.26,30.11,2,0,6,0.00
2013-10-16,65,58,51,53,50,48,95,76,55,30.11,29.83,3,1,8,0.00
2013-10-17,66,56,48,55,50,45,96,82,54,29.83,29.65,3,0,9,0.13
2013-10-18,59,53,40,52,48,37,97,84,61,29.91,29.58,4,1,14,0.60
2013-10-19,63,49,33,48,41,32,97,77,50,29.93,29.67,4,0,10,0.01
2013-10-20,55,48,37,48,38,-100,94,71,51,30.00,29.65,5,1,15,0.02
2013-10-21,61,46,31,45,38,30,96,78,47,30.09,29.93,3,0,10,0.00
2013-10-22,55,47,33,49,41,30,93,81,59,29.88,29.72,4,0,12,0.02
2013-10-23,51,39,29,38,33,28,96,79,51,29.80,29.61,4,0,8,0.01
2013-10-24,46,39,29,38,32,27,94,78,60,29.89,29.67,6,1,18,0.02
2013-10-25,44,38,29,33,29,26,90,70,54,30.12,29.88,3,1,11,0.01
2013-10-26,47,39,27,36,31,25,94,73,46,30.13,29.81,5,1,14,0.00
2013-10-27,49,41,29,39,31,-100,90,70,50,30.04,29.77,3,0,14,0.00
2013-10-28,49,38,24,37,29,-100,91,75,54,30.37,30.03,5,1,15,0.00
2013-10-29,43,28,17,27,20,15,93,75,43,30.49,30.37,4,0,8,0.00
2013-10-30,47,35,25,37,30,21,94,83,65,30.37,30.19,2,0,5,0.01
2013-10-31,57,41,29,56,40,28,97,95,88,30.24,29.64,1,0,4,0.01